| time (UTC) | temp F | wind direction | speed MPH | gust MPH | rain 1hr in | rain 24hr in | rain mn in | humidity % | barometer mb |
| 20260505212804 | 49 | 271 | 2.0 | 5.0 | 0.00 | 0.01 | 0.00 | 71 | 1005.3 |
| 20260505212305 | 50 | 265 | 2.0 | 6.0 | 0.00 | 0.01 | 0.00 | 74 | 1005.2 |
| 20260505211804 | 49 | 291 | 4.0 | 6.0 | 0.00 | 0.01 | 0.00 | 75 | 1005.2 |
| 20260505211304 | 49 | 323 | 4.0 | 8.0 | 0.00 | 0.01 | 0.00 | 75 | 1005.2 |
| 20260505210804 | 49 | 324 | 5.0 | 9.0 | 0.00 | 0.01 | 0.00 | 76 | 1005.1 |
| 20260505210304 | 49 | 304 | 3.0 | 8.0 | 0.00 | 0.01 | 0.00 | 77 | 1005.1 |
| 20260505205804 | 49 | 306 | 3.0 | 7.0 | 0.00 | 0.01 | 0.00 | 78 | 1005.1 |
| 20260505205305 | 49 | 333 | 4.0 | 7.0 | 0.00 | 0.01 | 0.00 | 78 | 1005.1 |
| 20260505204805 | 48 | 308 | 5.0 | 10.0 | 0.00 | 0.01 | 0.00 | 78 | 1005.0 |
| 20260505204304 | 48 | 313 | 4.0 | 6.0 | 0.00 | 0.01 | 0.00 | 75 | 1005.0 |
| 20260505203804 | 48 | 310 | 2.0 | 7.0 | 0.00 | 0.01 | 0.00 | 81 | 1005.0 |
| 20260505203304 | 48 | 310 | 4.0 | 7.0 | 0.00 | 0.01 | 0.00 | 83 | 1004.9 |
| 20260505202805 | 48 | 308 | 3.0 | 7.0 | 0.00 | 0.01 | 0.00 | 83 | 1004.9 |
| 20260505202306 | 48 | 305 | 2.0 | 7.0 | 0.00 | 0.01 | 0.00 | 84 | 1004.9 |
| 20260505201804 | 48 | 318 | 4.0 | 7.0 | 0.00 | 0.01 | 0.00 | 84 | 1004.8 |
| 20260505201304 | 48 | 290 | 2.0 | 7.0 | 0.00 | 0.01 | 0.00 | 85 | 1004.8 |
| 20260505200804 | 48 | 315 | 3.0 | 8.0 | 0.00 | 0.01 | 0.00 | 86 | 1004.8 |
| 20260505200304 | 48 | 293 | 3.0 | 6.0 | 0.00 | 0.01 | 0.00 | 87 | 1004.8 |
| 20260505195804 | 48 | 293 | 1.0 | 5.0 | 0.00 | 0.01 | 0.00 | 89 | 1004.8 |
| 20260505194804 | 47 | 326 | 3.0 | 8.0 | 0.00 | 0.01 | 0.00 | 90 | 1004.7 |
| 20260505194304 | 47 | 316 | 5.0 | 7.0 | 0.00 | 0.01 | 0.00 | 90 | 1004.7 |
| 20260505193803 | 47 | 305 | 3.0 | 7.0 | 0.00 | 0.01 | 0.00 | 91 | 1004.7 |
| 20260505193304 | 46 | 294 | 2.0 | 5.0 | 0.00 | 0.01 | 0.00 | 91 | 1004.7 |
| 20260505192804 | 46 | 326 | 3.0 | 6.0 | 0.00 | 0.01 | 0.00 | 93 | 1004.7 |
| 20260505192305 | 46 | 338 | 4.0 | 7.0 | 0.00 | 0.01 | 0.00 | 95 | 1004.6 |
| 20260505191803 | 45 | 337 | 4.0 | 7.0 | 0.00 | 0.01 | 0.00 | 96 | 1004.6 |
| 20260505191304 | 45 | 333 | 0.0 | 3.0 | 0.00 | 0.01 | 0.00 | 96 | 1004.6 |
| 20260505190804 | 45 | 1 | 2.0 | 5.0 | 0.00 | 0.01 | 0.00 | 96 | 1004.6 |
| 20260505190304 | 45 | 323 | 0.0 | 0.0 | 0.00 | 0.01 | 0.00 | 96 | 1004.6 |
| 20260505185804 | 44 | 323 | 0.0 | 0.0 | 0.00 | 0.01 | 0.00 | 96 | 1004.6 |
| 20260505185305 | 44 | 323 | 0.0 | 2.0 | 0.00 | 0.01 | 0.00 | 97 | 1004.6 |
| 20260505184804 | 44 | 326 | 1.0 | 3.0 | 0.00 | 0.01 | 0.00 | 97 | 1004.6 |
| 20260505184303 | 44 | 322 | 1.0 | 1.0 | 0.00 | 0.01 | 0.00 | 97 | 1004.6 |
| 20260505183804 | 44 | 48 | 1.0 | 1.0 | 0.00 | 0.01 | 0.00 | 97 | 1004.7 |
| 20260505183304 | 44 | 27 | 1.0 | 5.0 | 0.00 | 0.01 | 0.00 | 97 | 1004.6 |
| 20260505182804 | 43 | 334 | 2.0 | 6.0 | 0.00 | 0.01 | 0.00 | 97 | 1004.6 |
| 20260505182306 | 43 | 0 | 0.0 | 0.0 | 0.00 | 0.01 | 0.00 | 97 | 1004.6 |
| 20260505181804 | 43 | 0 | 0.0 | 1.0 | 0.00 | 0.01 | 0.00 | 97 | 1004.5 |
| 20260505181304 | 43 | 2 | 3.0 | 5.0 | 0.00 | 0.01 | 0.00 | 97 | 1004.5 |
| 20260505180804 | 43 | 308 | 1.0 | 3.0 | 0.00 | 0.01 | 0.00 | 97 | 1004.5 |
| 20260505180304 | 43 | 309 | 1.0 | 5.0 | 0.00 | 0.01 | 0.00 | 97 | 1004.5 |
| 20260505175804 | 43 | 291 | 1.0 | 3.0 | 0.00 | 0.02 | 0.00 | 97 | 1004.5 |
| 20260505175305 | 42 | 288 | 2.0 | 3.0 | 0.00 | 0.03 | 0.00 | 97 | 1004.4 |
| 20260505174804 | 43 | 264 | 1.0 | 2.0 | 0.00 | 0.03 | 0.00 | 97 | 1004.4 |
| 20260505174304 | 43 | 252 | 1.0 | 3.0 | 0.00 | 0.03 | 0.00 | 97 | 1004.4 |
| 20260505173804 | 42 | 270 | 2.0 | 3.0 | 0.00 | 0.03 | 0.00 | 97 | 1004.3 |
| 20260505173304 | 43 | 208 | 2.0 | 3.0 | 0.00 | 0.04 | 0.00 | 97 | 1004.3 |
| 20260505172804 | 42 | 246 | 2.0 | 6.0 | 0.00 | 0.04 | 0.00 | 97 | 1004.2 |
| 20260505172306 | 42 | 244 | 3.0 | 5.0 | 0.00 | 0.05 | 0.00 | 97 | 1004.1 |
| 20260505171805 | 42 | 264 | 2.0 | 3.0 | 0.00 | 0.05 | 0.00 | 97 | 1004.0 |
| 20260505171304 | 42 | 209 | 0.0 | 2.0 | 0.00 | 0.06 | 0.00 | 97 | 1004.0 |
| 20260505170804 | 42 | 209 | 0.0 | 0.0 | 0.00 | 0.06 | 0.00 | 97 | 1003.9 |
| 20260505170304 | 42 | 209 | 0.0 | 2.0 | 0.00 | 0.07 | 0.00 | 97 | 1003.9 |
| 20260505165804 | 42 | 233 | 0.0 | 2.0 | 0.00 | 0.07 | 0.00 | 97 | 1003.8 |
| 20260505165306 | 41 | 232 | 0.0 | 0.0 | 0.00 | 0.07 | 0.00 | 97 | 1003.8 |
| 20260505164804 | 41 | 232 | 0.0 | 1.0 | 0.00 | 0.07 | 0.00 | 97 | 1003.8 |
| 20260505164304 | 41 | 236 | 1.0 | 2.0 | 0.00 | 0.08 | 0.00 | 97 | 1003.7 |
| 20260505163804 | 41 | 147 | 0.0 | 1.0 | 0.00 | 0.08 | 0.00 | 97 | 1003.6 |
| 20260505163304 | 41 | 147 | 0.0 | 0.0 | 0.00 | 0.09 | 0.00 | 97 | 1003.6 |
| 20260505162804 | 41 | 161 | 2.0 | 5.0 | 0.00 | 0.09 | 0.00 | 97 | 1003.6 |
| 20260505162306 | 41 | 170 | 2.0 | 5.0 | 0.00 | 0.09 | 0.00 | 97 | 1003.5 |
| 20260505161804 | 40 | 321 | 3.0 | 5.0 | 0.00 | 0.10 | 0.00 | 97 | 1003.4 |
| 20260505161305 | 40 | 116 | 0.0 | 0.0 | 0.00 | 0.10 | 0.00 | 97 | 1003.5 |
| 20260505160804 | 40 | 116 | 0.0 | 0.0 | 0.00 | 0.11 | 0.00 | 97 | 1003.4 |
| 20260505160304 | 40 | 116 | 0.0 | 0.0 | 0.00 | 0.11 | 0.00 | 97 | 1003.3 |
| 20260505153304 | 39 | 71 | 0.0 | 0.0 | 0.00 | 0.12 | 0.00 | 97 | 1003.3 |
| 20260505152804 | 39 | 71 | 0.0 | 0.0 | 0.00 | 0.12 | 0.00 | 97 | 1003.2 |
| 20260505152305 | 39 | 71 | 0.0 | 2.0 | 0.00 | 0.13 | 0.00 | 97 | 1003.2 |
| 20260505151804 | 39 | 38 | 0.0 | 2.0 | 0.00 | 0.13 | 0.00 | 97 | 1003.2 |
| 20260505151304 | 39 | 12 | 1.0 | 3.0 | 0.00 | 0.13 | 0.00 | 97 | 1003.1 |
| 20260505150804 | 39 | 58 | 0.0 | 0.0 | 0.00 | 0.13 | 0.00 | 97 | 1003.1 |
| 20260505150304 | 39 | 58 | 1.0 | 2.0 | 0.00 | 0.14 | 0.00 | 97 | 1003.2 |
| 20260505140304 | 39 | 335 | 0.0 | 2.0 | 0.00 | 0.17 | 0.00 | 97 | 1002.7 |
| 20260505130304 | 38 | 218 | 0.0 | 2.0 | 0.00 | 0.21 | 0.00 | 97 | 1002.3 |
| 20260505124805 | 38 | 35 | 0.0 | 0.0 | 0.00 | 0.23 | 0.00 | 97 | 1002.2 |
| 20260505124305 | 38 | 35 | 0.0 | 0.0 | 0.00 | 0.23 | 0.00 | 97 | 1002.2 |
| 20260505123804 | 38 | 50 | 2.0 | 5.0 | 0.00 | 0.24 | 0.00 | 97 | 1002.3 |
| 20260505123305 | 38 | 23 | 0.0 | 1.0 | 0.00 | 0.25 | 0.00 | 97 | 1002.2 |
| 20260505122805 | 38 | 173 | 1.0 | 3.0 | 0.00 | 0.25 | 0.00 | 97 | 1002.2 |
| 20260505122305 | 38 | 3 | 3.0 | 3.0 | 0.00 | 0.26 | 0.00 | 97 | 1002.2 |
| 20260505121804 | 38 | 66 | 0.0 | 0.0 | 0.00 | 0.26 | 0.00 | 97 | 1002.1 |
| 20260505121304 | 39 | 69 | 1.0 | 3.0 | 0.00 | 0.27 | 0.00 | 97 | 1002.4 |
| 20260505120804 | 39 | 135 | 1.0 | 2.0 | 0.00 | 0.27 | 0.00 | 97 | 1002.4 |
| 20260505120304 | 39 | 169 | 0.0 | 1.0 | 0.00 | 0.28 | 0.00 | 97 | 1002.3 |
| 20260505115804 | 39 | 89 | 1.0 | 2.0 | 0.00 | 0.29 | 0.00 | 97 | 1002.3 |
| 20260505115305 | 39 | 210 | 0.0 | 0.0 | 0.00 | 0.29 | 0.00 | 97 | 1002.3 |
| 20260505114804 | 39 | 210 | 0.0 | 0.0 | 0.00 | 0.29 | 0.00 | 96 | 1002.4 |
| 20260505114303 | 39 | 210 | 0.0 | 2.0 | 0.00 | 0.30 | 0.00 | 96 | 1002.4 |
| 20260505113804 | 39 | 146 | 0.0 | 2.0 | 0.00 | 0.30 | 0.00 | 96 | 1002.6 |
| 20260505113304 | 39 | 89 | 2.0 | 7.0 | 0.00 | 0.30 | 0.00 | 96 | 1002.7 |
| 20260505112804 | 39 | 186 | 2.0 | 3.0 | 0.00 | 0.31 | 0.00 | 96 | 1002.7 |
| 20260505112305 | 40 | 122 | 1.0 | 3.0 | 0.00 | 0.31 | 0.00 | 96 | 1002.7 |
| 20260505111804 | 40 | 155 | 1.0 | 3.0 | 0.00 | 0.31 | 0.00 | 96 | 1002.6 |
| 20260505111305 | 40 | 28 | 1.0 | 3.0 | 0.00 | 0.32 | 0.00 | 96 | 1002.7 |
| 20260505110804 | 40 | 6 | 0.0 | 2.0 | 0.00 | 0.32 | 0.00 | 96 | 1002.8 |
| 20260505110305 | 40 | 340 | 0.0 | 1.0 | 0.00 | 0.32 | 0.00 | 96 | 1002.7 |
| 20260505101804 | 40 | 294 | 0.0 | 0.0 | 0.00 | 0.36 | 0.00 | 96 | 1002.7 |
| 20260505101304 | 40 | 294 | 0.0 | 0.0 | 0.00 | 0.36 | 0.00 | 96 | 1002.7 |
| 20260505100804 | 40 | 294 | 0.0 | 0.0 | 0.00 | 0.37 | 0.00 | 96 | 1002.7 |
| 20260505100304 | 40 | 294 | 0.0 | 0.0 | 0.00 | 0.37 | 0.00 | 96 | 1002.6 |
| 20260505095804 | 40 | 294 | 0.0 | 0.0 | 0.00 | 0.37 | 0.00 | 96 | 1002.6 |
| 20260505095305 | 40 | 294 | 0.0 | 0.0 | 0.00 | 0.37 | 0.00 | 96 | 1002.7 |
| 20260505094803 | 41 | 294 | 0.0 | 0.0 | 0.00 | 0.38 | 0.00 | 96 | 1002.9 |
| 20260505094304 | 41 | 294 | 0.0 | 0.0 | 0.00 | 0.38 | 0.00 | 96 | 1002.7 |
| 20260505093804 | 41 | 294 | 0.0 | 0.0 | 0.00 | 0.38 | 0.00 | 96 | 1002.7 |
| 20260505093304 | 41 | 294 | 0.0 | 0.0 | 0.00 | 0.38 | 0.00 | 96 | 1002.6 |
| 20260505092804 | 41 | 294 | 0.0 | 0.0 | 0.00 | 0.38 | 0.00 | 96 | 1002.7 |
| 20260505092305 | 41 | 294 | 0.0 | 0.0 | 0.00 | 0.38 | 0.00 | 96 | 1002.7 |
| 20260505091804 | 41 | 294 | 0.0 | 0.0 | 0.00 | 0.39 | 0.00 | 96 | 1002.8 |
| 20260505091304 | 41 | 294 | 0.0 | 0.0 | 0.00 | 0.39 | 0.00 | 96 | 1002.9 |
| 20260505090804 | 41 | 294 | 0.0 | 0.0 | 0.00 | 0.39 | 0.00 | 96 | 1003.1 |
| 20260505090304 | 41 | 294 | 0.0 | 0.0 | 0.00 | 0.39 | 0.00 | 96 | 1003.1 |
| 20260505085804 | 41 | 294 | 0.0 | 0.0 | 0.00 | 0.39 | 0.00 | 96 | 1003.1 |
| 20260505085305 | 41 | 294 | 0.0 | 0.0 | 0.00 | 0.39 | 0.00 | 96 | 1003.0 |
| 20260505084804 | 41 | 294 | 0.0 | 0.0 | 0.00 | 0.39 | 0.00 | 96 | 1002.9 |
| 20260505084303 | 41 | 294 | 0.0 | 0.0 | 0.00 | 0.39 | 0.00 | 96 | 1003.0 |
| 20260505083804 | 41 | 294 | 0.0 | 0.0 | 0.00 | 0.39 | 0.00 | 96 | 1003.1 |
| 20260505083304 | 41 | 294 | 0.0 | 0.0 | 0.00 | 0.39 | 0.00 | 96 | 1003.0 |
| 20260505082804 | 41 | 294 | 0.0 | 0.0 | 0.00 | 0.40 | 0.00 | 96 | 1003.1 |
| 20260505082304 | 41 | 294 | 0.0 | 0.0 | 0.00 | 0.40 | 0.00 | 96 | 1003.2 |
| 20260505081804 | 41 | 294 | 0.0 | 0.0 | 0.00 | 0.40 | 0.00 | 96 | 1003.2 |
| 20260505081304 | 41 | 277 | 0.0 | 1.0 | 0.00 | 0.40 | 0.00 | 96 | 1003.2 |
| 20260505080804 | 41 | 272 | 0.0 | 0.0 | 0.00 | 0.41 | 0.00 | 96 | 1003.3 |
| 20260505080305 | 41 | 272 | 0.0 | 0.0 | 0.00 | 0.41 | 0.00 | 96 | 1003.4 |
| 20260505075804 | 41 | 299 | 0.0 | 3.0 | 0.00 | 0.41 | 0.41 | 96 | 1003.3 |
| 20260505075304 | 41 | 356 | 2.0 | 5.0 | 0.00 | 0.41 | 0.41 | 96 | 1003.2 |
| 20260505074804 | 41 | 271 | 0.0 | 1.0 | 0.00 | 0.41 | 0.41 | 96 | 1003.4 |
| 20260505074304 | 41 | 280 | 0.0 | 0.0 | 0.00 | 0.41 | 0.41 | 96 | 1003.3 |
| 20260505073804 | 41 | 280 | 0.0 | 1.0 | 0.00 | 0.42 | 0.41 | 95 | 1003.4 |
| 20260505073304 | 42 | 334 | 1.0 | 3.0 | 0.00 | 0.42 | 0.41 | 95 | 1003.5 |
| 20260505072803 | 42 | 272 | 0.0 | 2.0 | 0.00 | 0.42 | 0.41 | 95 | 1003.4 |
| 20260505072305 | 42 | 209 | 1.0 | 2.0 | 0.00 | 0.43 | 0.41 | 95 | 1003.5 |
| 20260505071804 | 42 | 267 | 1.0 | 2.0 | 0.00 | 0.43 | 0.41 | 95 | 1003.5 |
| 20260505071304 | 42 | 292 | 1.0 | 3.0 | 0.00 | 0.43 | 0.41 | 95 | 1003.4 |
| 20260505070804 | 42 | 321 | 2.0 | 3.0 | 0.00 | 0.43 | 0.41 | 95 | 1003.4 |
| 20260505070304 | 42 | 352 | 0.0 | 0.0 | 0.00 | 0.43 | 0.41 | 95 | 1003.5 |
| 20260505065804 | 42 | 352 | 0.0 | 0.0 | 0.00 | 0.43 | 0.41 | 95 | 1003.5 |
| 20260505065304 | 42 | 352 | 0.0 | 0.0 | 0.00 | 0.44 | 0.41 | 95 | 1003.4 |
| 20260505064804 | 42 | 352 | 0.0 | 2.0 | 0.00 | 0.44 | 0.41 | 95 | 1003.6 |
| 20260505064304 | 42 | 296 | 2.0 | 3.0 | 0.00 | 0.44 | 0.41 | 95 | 1003.4 |
| 20260505063805 | 42 | 52 | 1.0 | 2.0 | 0.00 | 0.45 | 0.41 | 95 | 1003.5 |
| 20260505063304 | 42 | 278 | 1.0 | 3.0 | 0.00 | 0.45 | 0.41 | 94 | 1003.6 |
| 20260505062805 | 42 | 320 | 2.0 | 3.0 | 0.00 | 0.45 | 0.41 | 94 | 1003.5 |
| 20260505062304 | 42 | 326 | 4.0 | 7.0 | 0.00 | 0.45 | 0.41 | 94 | 1003.5 |
| 20260505061805 | 42 | 226 | 0.0 | 5.0 | 0.00 | 0.46 | 0.41 | 94 | 1003.6 |
| 20260505061305 | 42 | 264 | 2.0 | 7.0 | 0.00 | 0.46 | 0.41 | 94 | 1003.6 |
| 20260505060804 | 43 | 337 | 1.0 | 5.0 | 0.00 | 0.46 | 0.41 | 94 | 1003.8 |
| 20260505060304 | 43 | 302 | 1.0 | 6.0 | 0.00 | 0.47 | 0.41 | 94 | 1003.6 |
| 20260505055804 | 43 | 258 | 0.0 | 5.0 | 0.00 | 0.47 | 0.41 | 94 | 1003.8 |
| 20260505055304 | 43 | 299 | 2.0 | 5.0 | 0.00 | 0.47 | 0.41 | 94 | 1003.7 |
| 20260505054804 | 43 | 359 | 3.0 | 5.0 | 0.00 | 0.47 | 0.41 | 94 | 1003.8 |
| 20260505054304 | 43 | 309 | 0.0 | 5.0 | 0.00 | 0.47 | 0.41 | 94 | 1003.8 |
| 20260505053804 | 43 | 313 | 3.0 | 6.0 | 0.00 | 0.47 | 0.41 | 94 | 1003.7 |
| 20260505053304 | 43 | 295 | 2.0 | 7.0 | 0.00 | 0.48 | 0.41 | 93 | 1003.8 |
| 20260505052804 | 44 | 357 | 3.0 | 6.0 | 0.00 | 0.48 | 0.41 | 93 | 1003.7 |
| 20260505052304 | 44 | 295 | 2.0 | 3.0 | 0.00 | 0.48 | 0.41 | 93 | 1003.8 |
| 20260505051804 | 44 | 262 | 1.0 | 3.0 | 0.00 | 0.48 | 0.41 | 93 | 1003.7 |
| 20260505051304 | 44 | 169 | 1.0 | 3.0 | 0.00 | 0.48 | 0.41 | 93 | 1003.7 |
| 20260505050804 | 44 | 323 | 2.0 | 6.0 | 0.00 | 0.49 | 0.41 | 93 | 1003.7 |
| 20260505050304 | 44 | 3 | 1.0 | 5.0 | 0.00 | 0.49 | 0.41 | 93 | 1003.8 |
| 20260505034304 | 45 | 345 | 4.0 | 6.0 | 0.00 | 0.51 | 0.41 | 92 | 1004.9 |
| 20260505033804 | 46 | 310 | 2.0 | 3.0 | 0.00 | 0.51 | 0.41 | 92 | 1005.0 |
| 20260505033304 | 46 | 322 | 4.0 | 6.0 | 0.00 | 0.51 | 0.41 | 92 | 1005.0 |
| 20260505032804 | 45 | 31 | 2.0 | 6.0 | 0.00 | 0.51 | 0.41 | 92 | 1005.1 |
| 20260505032305 | 45 | 329 | 3.0 | 6.0 | 0.00 | 0.51 | 0.41 | 92 | 1005.0 |
| 20260505031804 | 45 | 352 | 3.0 | 7.0 | 0.00 | 0.51 | 0.41 | 92 | 1005.2 |
| 20260505031304 | 45 | 326 | 2.0 | 6.0 | 0.00 | 0.51 | 0.41 | 92 | 1005.3 |
| 20260505030804 | 46 | 308 | 2.0 | 5.0 | 0.00 | 0.51 | 0.41 | 92 | 1005.5 |
| 20260505030304 | 45 | 336 | 3.0 | 6.0 | 0.00 | 0.51 | 0.41 | 92 | 1005.5 |
| 20260505025803 | 45 | 284 | 3.0 | 8.0 | 0.00 | 0.51 | 0.41 | 92 | 1005.4 |
| 20260505025305 | 45 | 21 | 1.0 | 3.0 | 0.00 | 0.51 | 0.41 | 93 | 1005.9 |
| 20260505024804 | 45 | 315 | 3.0 | 5.0 | 0.00 | 0.51 | 0.41 | 93 | 1005.8 |
| 20260505024304 | 46 | 2 | 3.0 | 5.0 | 0.00 | 0.51 | 0.41 | 93 | 1006.0 |
| 20260505023804 | 46 | 307 | 4.0 | 7.0 | 0.00 | 0.51 | 0.41 | 93 | 1006.1 |
| 20260505023304 | 45 | 325 | 4.0 | 7.0 | 0.00 | 0.51 | 0.41 | 93 | 1006.2 |
| 20260505022804 | 46 | 197 | 2.0 | 7.0 | 0.00 | 0.52 | 0.41 | 93 | 1006.3 |
| 20260505022304 | 46 | 321 | 5.0 | 8.0 | 0.00 | 0.52 | 0.41 | 93 | 1006.2 |
| 20260505021804 | 46 | 284 | 1.0 | 5.0 | 0.00 | 0.52 | 0.41 | 94 | 1006.3 |
| 20260505021304 | 46 | 333 | 6.0 | 10.0 | 0.00 | 0.52 | 0.41 | 94 | 1006.1 |
| 20260505020804 | 46 | 338 | 5.0 | 8.0 | 0.00 | 0.52 | 0.41 | 94 | 1006.2 |
| 20260505020304 | 45 | 344 | 5.0 | 8.0 | 0.00 | 0.52 | 0.41 | 94 | 1006.5 |
| 20260505015804 | 45 | 355 | 5.0 | 9.0 | 0.00 | 0.52 | 0.41 | 95 | 1006.3 |
| 20260505015304 | 45 | 333 | 2.0 | 5.0 | 0.00 | 0.52 | 0.41 | 95 | 1006.7 |
| 20260505014804 | 45 | 352 | 4.0 | 6.0 | 0.00 | 0.52 | 0.41 | 95 | 1006.7 |
| 20260505014304 | 45 | 300 | 3.0 | 6.0 | 0.00 | 0.52 | 0.41 | 95 | 1007.0 |
| 20260505003305 | 43 | 328 | 3.0 | 5.0 | 0.01 | 0.52 | 0.41 | 96 | 1008.2 |
| 20260505002804 | 43 | 313 | 2.0 | 3.0 | 0.01 | 0.52 | 0.41 | 96 | 1008.4 |
| 20260505002304 | 43 | 289 | 3.0 | 7.0 | 0.01 | 0.52 | 0.41 | 96 | 1008.6 |
| 20260505001804 | 43 | 355 | 4.0 | 6.0 | 0.01 | 0.52 | 0.41 | 96 | 1008.4 |
| 20260505001303 | 43 | 346 | 4.0 | 6.0 | 0.01 | 0.52 | 0.41 | 96 | 1008.6 |
| 20260505000804 | 43 | 3 | 5.0 | 7.0 | 0.01 | 0.52 | 0.41 | 96 | 1008.9 |
| 20260505000304 | 43 | 298 | 2.0 | 6.0 | 0.01 | 0.52 | 0.41 | 96 | 1009.3 |
| 20260504235804 | 43 | 336 | 4.0 | 8.0 | 0.00 | 0.51 | 0.40 | 96 | 1009.4 |
| 20260504235305 | 43 | 324 | 6.0 | 8.0 | 0.00 | 0.51 | 0.40 | 96 | 1009.4 |
| 20260504234804 | 43 | 310 | 5.0 | 7.0 | 0.00 | 0.51 | 0.40 | 96 | 1009.6 |
| 20260504234304 | 43 | 322 | 2.0 | 5.0 | 0.00 | 0.51 | 0.40 | 96 | 1009.8 |
| 20260504233804 | 43 | 351 | 3.0 | 6.0 | 0.00 | 0.51 | 0.40 | 96 | 1009.7 |
| 20260504233304 | 42 | 297 | 4.0 | 7.0 | 0.00 | 0.51 | 0.40 | 96 | 1009.9 |
| 20260504232804 | 42 | 328 | 3.0 | 7.0 | 0.00 | 0.51 | 0.40 | 96 | 1009.9 |
| 20260504232304 | 42 | 332 | 2.0 | 6.0 | 0.00 | 0.51 | 0.40 | 96 | 1009.9 |
| 20260504231804 | 43 | 283 | 2.0 | 5.0 | 0.00 | 0.51 | 0.40 | 96 | 1010.1 |
| 20260504231304 | 42 | 302 | 3.0 | 6.0 | 0.00 | 0.51 | 0.40 | 96 | 1010.1 |
| 20260504230804 | 42 | 322 | 1.0 | 5.0 | 0.00 | 0.51 | 0.40 | 96 | 1010.0 |
| 20260504230304 | 42 | 340 | 3.0 | 6.0 | 0.00 | 0.51 | 0.40 | 96 | 1010.0 |
| 20260504225804 | 42 | 334 | 4.0 | 8.0 | 0.00 | 0.51 | 0.40 | 96 | 1010.2 |
| 20260504225304 | 42 | 312 | 5.0 | 8.0 | 0.00 | 0.51 | 0.40 | 96 | 1010.3 |
| 20260504224804 | 42 | 339 | 3.0 | 6.0 | 0.00 | 0.51 | 0.40 | 96 | 1010.3 |
| 20260504224303 | 42 | 339 | 5.0 | 7.0 | 0.00 | 0.51 | 0.40 | 96 | 1010.3 |
| 20260504223803 | 42 | 314 | 2.0 | 5.0 | 0.00 | 0.51 | 0.40 | 96 | 1010.5 |
| 20260504223304 | 42 | 338 | 5.0 | 6.0 | 0.00 | 0.51 | 0.40 | 96 | 1010.4 |
| 20260504222305 | 42 | 343 | 4.0 | 7.0 | 0.00 | 0.51 | 0.40 | 96 | 1010.7 |
| 20260504221804 | 42 | 0 | 4.0 | 6.0 | 0.00 | 0.51 | 0.40 | 96 | 1010.8 |
| 20260504221304 | 42 | 336 | 2.0 | 5.0 | 0.00 | 0.51 | 0.40 | 96 | 1010.8 |
| 20260504220804 | 42 | 319 | 3.0 | 6.0 | 0.00 | 0.51 | 0.40 | 96 | 1011.2 |
| 20260504220304 | 42 | 319 | 3.0 | 7.0 | 0.00 | 0.51 | 0.40 | 96 | 1011.2 |
| 20260504215805 | 43 | 290 | 1.0 | 5.0 | 0.00 | 0.51 | 0.40 | 96 | 1011.4 |
| 20260504215305 | 43 | 311 | 2.0 | 5.0 | 0.00 | 0.51 | 0.40 | 96 | 1011.4 |
| 20260504214804 | 43 | 288 | 1.0 | 5.0 | 0.00 | 0.51 | 0.40 | 96 | 1011.3 |
| 20260504214304 | 43 | 321 | 2.0 | 5.0 | 0.00 | 0.51 | 0.40 | 96 | 1011.0 |
| 20260504213804 | 43 | 297 | 1.0 | 6.0 | 0.00 | 0.51 | 0.40 | 96 | 1011.2 |
| 20260504213304 | 43 | 323 | 3.0 | 5.0 | 0.00 | 0.51 | 0.40 | 96 | 1011.2 |